This is the latest recevied weather packets stored in our database for station/object AK4NG. If no packets are shown the sender has not sent any weather packets the latest 10 day(s).
| Time | Temp. | Humidity | Pressure | Rain* | Wind** | Luminosity | Snow |
|---|---|---|---|---|---|---|---|
| 1778077807 | 23.89° C | 79% | 1017 hPa | 0 mm | - | 708 W/m² | - |
| 1778077504 | 23.89° C | 79% | 1017.2 hPa | 0 mm | - | 237 W/m² | - |
| 1778077202 | 23.33° C | 81% | 1017 hPa | 0 mm | - | 313 W/m² | - |
| 1778076900 | 23.33° C | 81% | 1017.2 hPa | 0 mm | - | 183 W/m² | - |
| 1778076598 | 23.89° C | 80% | 1017.4 hPa | 0 mm | - | 243 W/m² | - |
| 1778076294 | 23.33° C | 80% | 1017.3 hPa | 0 mm | - | 451 W/m² | - |
| 1778075991 | 23.33° C | 81% | 1017 hPa | 0 mm | - | 274 W/m² | - |
| 1778075689 | 23.33° C | 82% | 1017.1 hPa | 0 mm | - | 366 W/m² | - |
| 1778075384 | 22.78° C | 84% | 1017.2 hPa | 0 mm | - | 261 W/m² | - |
| 1778075081 | 22.78° C | 83% | 1017.3 hPa | 0 mm | - | 208 W/m² | - |
| 1778074778 | 22.22° C | 85% | 1017.2 hPa | 0 mm | - | 211 W/m² | - |
| 1778074475 | 22.22° C | 85% | 1017.3 hPa | 0 mm | - | 182 W/m² | - |
| 1778074171 | 22.22° C | 86% | 1017 hPa | 0 mm | - | 188 W/m² | - |
| 1778073868 | 21.67° C | 86% | 1016.9 hPa | 0 mm | - | 217 W/m² | - |
| 1778073566 | 21.67° C | 87% | 1016.9 hPa | 0 mm | - | 200 W/m² | - |
| 1778073262 | 21.67° C | 88% | 1016.7 hPa | 0 mm | - | 118 W/m² | - |
| 1778072960 | 21.67° C | 88% | 1016.7 hPa | 0 mm | - | 86 W/m² | - |
| 1778072656 | 21.67° C | 88% | 1016.5 hPa | 0 mm | - | 126 W/m² | - |
| 1778072354 | 21.67° C | 89% | 1016.4 hPa | 0 mm | - | 112 W/m² | - |
| 1778072052 | 21.11° C | 90% | 1016.3 hPa | 0 mm | - | 168 W/m² | - |
| 1778071750 | 21.11° C | 89% | 1016.4 hPa | 0 mm | - | 116 W/m² | - |
| 1778071447 | 21.11° C | 90% | 1016.2 hPa | 0 mm | - | 110 W/m² | - |
| 1778071145 | 21.11° C | 91% | 1016.2 hPa | 0 mm | - | 114 W/m² | - |
| 1778070843 | 20.56° C | 92% | 1016.2 hPa | 0 mm | - | 110 W/m² | - |
| 1778070539 | 20.56° C | 92% | 1016.2 hPa | 0 mm | - | 102 W/m² | - |
* Rain latest hour (hover to see other rain measurements)
** Current wind speed in m/s (hover to see current wind gust speed)